Location: Unspecified
(0.0000°N, 0.0000°E)
Time: 21:14:05
(UTC+00:00)

A-11 Canister half - Visible Passes

Search period start: 24 January 2017 00:00
Search period end: 03 February 2017 00:00
Orbit: 1514 x 1686 km, 47.2° (Epoch: 23 January)

Date Brightness Start Highest point End Pass type
(mag) Time Alt. Az. Time Alt. Az. Time Alt. Az.
24 Jan 11.2 04:50:00 10° S 04:57:30 24° SE 05:04:46 10° E visible
24 Jan 10.6 19:44:09 10° WNW 19:52:39 34° SW 20:01:29 10° SSE visible
25 Jan 11.2 04:27:23 10° S 04:34:32 22° SE 04:41:27 10° E visible
25 Jan 10.5 19:21:01 10° WNW 19:29:42 38° SW 19:38:44 10° SSE visible
26 Jan 11.2 04:04:49 10° S 04:11:32 20° SE 04:18:04 10° E visible
26 Jan 10.4 18:57:54 10° WNW 19:06:45 41° SW 19:15:58 10° SSE visible
27 Jan 11.3 03:42:18 10° S 03:48:32 18° SE 03:54:38 10° E visible
27 Jan 9.1 05:43:52 10° SW 05:53:46 89° NW 06:03:15 10° NE visible
27 Jan 10.3 18:34:49 10° WNW 18:43:49 44° SW 18:53:10 10° SSE visible
28 Jan 11.3 03:19:50 10° S 03:25:32 16° SE 03:31:06 10° E visible
28 Jan 9.2 05:20:56 10° SW 05:30:51 84° SE 05:40:22 10° NE visible
29 Jan 11.3 02:57:28 10° SSE 03:02:31 15° SE 03:07:27 10° ESE visible
29 Jan 9.2 04:58:00 10° SW 05:07:56 78° SE 05:17:27 10° NE visible
30 Jan 11.3 02:35:15 10° SSE 02:39:29 13° SE 02:43:40 10° ESE visible
30 Jan 9.3 04:35:06 10° SSW 04:45:01 72° SE 04:54:32 10° NE visible
31 Jan 11.4 02:13:16 10° SSE 02:16:27 12° SE 02:19:36 10° ESE visible
31 Jan 9.3 04:12:12 10° SSW 04:22:06 67° SE 04:31:35 10° NE visible
31 Jan 11.8 19:16:11 10° SW 19:17:49 10° SW 19:19:27 10° SSW visible
01 Feb 11.4 01:52:01 10° SE 01:53:24 10° SE 01:54:46 10° SE visible
01 Feb 9.4 03:49:20 10° SSW 03:59:10 61° SE 04:08:36 10° NE visible
01 Feb 11.7 18:51:33 10° WSW 18:54:46 12° SW 18:58:02 10° SSW visible
02 Feb 9.5 03:26:29 10° SSW 03:36:15 56° SE 03:45:37 10° NE visible
02 Feb 9.7 05:32:41 10° WSW 05:41:01 31° NW 05:49:08 10° N visible
02 Feb 11.6 18:27:32 10° WSW 18:31:44 13° SW 18:36:01 10° SSW visible
